Weather History for Robstown, TX

Change the Weather History Date:

Sunday, March 3, 2013

  Actual Average (KCRP) Record (KCRP)
Temperature  
Mean Temperature 58 °F 64 °F  
Max Temperature 78 °F 73 °F 88 °F (1966)
Min Temperature 39 °F 54 °F 28 °F (1943)
Degree Days  
Heating Degree Days 6 4  
Month to date heating degree days 12  
Since 1 July heating degree days 812  
Cooling Degree Days 0 3  
Month to date cooling degree days 8  
Year to date cooling degree days 84  
Growing Degree Days 8 (Base 50)    
Moisture  
Dew Point 36 °F    
Average Humidity 44    
Maximum Humidity 69    
Minimum Humidity 18    
Precipitation  
Precipitation 0.00 in 0.07 in 1.16 in (1957)
Month to date precipitation 0.21  
Year to date precipitation 3.68  
Snow  
Snow 0.00 in - - ()
Month to date snowfall  
Since 1 July snowfall  
Snow Depth -    
Sea Level Pressure  
Sea Level Pressure 30.18 in    
Wind  
Wind Speed 9 mph (South)    
Max Wind Speed 24 mph    
Max Gust Speed 31 mph    
Visibility 10 miles    
Events      
T = Trace of Precipitation, MM = Missing Value Source: NWS Daily Summary

Daily Weather History Graph

Daily Weather History Graph

Search for Another Location

Airport:

Trip Planner

Search our weather history database for the weather conditions in past years. The results will help you decide how hot, cold, wet, or windy it might be!

Date:

Astronomy

Mar. 03, 2013 Rise Set
Actual Time 6:52 AM CST 6:32 PM CST
Civil Twilight 6:29 AM CST 6:56 PM CST
Nautical Twilight 6:02 AM CST 7:23 PM CST
Astronomical Twilight 5:35 AM CST 7:50 PM CST
Moon No Moon Rise 10:43 AM CST (3/3)
Length of Visible Light 12h 26m
Length of Day
11h 39m
Waning Gibbous, 63% of the Moon is Illuminated
Mar 3
Waning Gibbous
Mar 4
Last Quarter
Mar 11
New
Mar 19
First Quarter
Mar 27
Full

Hourly Weather History & Observations

Time (CST) Temp. Windchill Dew Point Humidity Pressure Visibility Wind Dir Wind Speed Gust Speed Precip Events Conditions
12:15 AM 49.3 °F - 27.5 °F 43% 30.30 in 10.0 mi Calm Calm - N/A   Clear
12:35 AM 45.7 °F - 24.1 °F 43% 30.30 in 10.0 mi Calm Calm - N/A   Clear
12:55 AM 41.9 °F 38.2 °F 18.5 °F 39% 30.30 in 10.0 mi SSW 5.8 mph - N/A   Clear
1:15 AM 43.9 °F - 22.3 °F 42% 30.30 in 10.0 mi Calm Calm - N/A   Clear
1:35 AM 43.2 °F - 22.6 °F 44% 30.30 in 10.0 mi Calm Calm - N/A   Clear
1:55 AM 43.9 °F 42.3 °F 23.7 °F 45% 30.30 in 10.0 mi West 3.5 mph - N/A   Clear
2:15 AM 41.2 °F 38.2 °F 19.4 °F 42% 30.30 in 10.0 mi West 4.6 mph - N/A   Clear
2:35 AM 41.5 °F 37.8 °F 21.9 °F 46% 30.29 in 10.0 mi West 5.8 mph - N/A   Clear
3:15 AM 40.3 °F 38.2 °F 20.8 °F 46% 30.27 in 10.0 mi West 3.5 mph - N/A   Clear
3:35 AM 42.6 °F 39.9 °F 25.5 °F 51% 30.27 in 10.0 mi WSW 4.6 mph - N/A   Clear
3:55 AM 41.5 °F 37.8 °F 24.1 °F 50% 30.27 in 10.0 mi WSW 5.8 mph - N/A   Clear
4:35 AM 40.5 °F 38.4 °F 23.2 °F 50% 30.27 in 10.0 mi West 3.5 mph - N/A   Clear
4:55 AM 41.9 °F 40.0 °F 25.7 °F 53% 30.26 in 10.0 mi WSW 3.5 mph - N/A   Clear
5:15 AM 40.8 °F 37.8 °F 25.2 °F 54% 30.25 in 10.0 mi WSW 4.6 mph - N/A   Clear
5:35 AM 40.6 °F 37.5 °F 26.4 °F 57% 30.26 in 10.0 mi WSW 4.6 mph - N/A   Clear
5:55 AM 40.3 °F 38.2 °F 25.3 °F 55% 30.27 in 10.0 mi WSW 3.5 mph - N/A   Clear
6:15 AM 40.1 °F 36.9 °F 25.5 °F 56% 30.27 in 10.0 mi WSW 4.6 mph - N/A   Clear
6:35 AM 40.1 °F 36.1 °F 26.8 °F 59% 30.26 in 10.0 mi SW 5.8 mph - N/A   Clear
6:55 AM 39.4 °F 36.1 °F 26.1 °F 59% 30.26 in 10.0 mi SW 4.6 mph - N/A   Clear
7:15 AM 41.0 °F 37.1 °F 27.1 °F 58% 30.27 in 10.0 mi SSW 5.8 mph - N/A   Clear
7:35 AM 42.8 °F 40.1 °F 28.8 °F 58% 30.27 in 10.0 mi SSW 4.6 mph - N/A   Clear
7:55 AM 46.6 °F - 32.0 °F 57% 30.28 in 10.0 mi SW 5.8 mph - N/A   Clear
8:15 AM 50.0 °F - 34.0 °F 54% 30.28 in 10.0 mi SW 5.8 mph - N/A   Clear
8:35 AM 54.5 °F - 36.5 °F 51% 30.29 in 10.0 mi SSW 6.9 mph - N/A   Clear
8:55 AM 57.6 °F - 38.3 °F 49% 30.29 in 10.0 mi SSW 8.1 mph - N/A   Clear
9:15 AM 61.0 °F - 39.2 °F 45% 30.29 in 10.0 mi SSW 12.7 mph - N/A   Clear
9:35 AM 63.9 °F - 40.1 °F 42% 30.28 in 10.0 mi South 15.0 mph 18.4 mph N/A   Clear
9:55 AM 65.3 °F - 39.7 °F 39% 30.27 in 10.0 mi South 15.0 mph - N/A   Clear
10:15 AM 67.1 °F - 38.5 °F 35% 30.27 in 10.0 mi South 18.4 mph - N/A   Clear
10:35 AM 68.9 °F - 37.9 °F 32% 30.26 in 10.0 mi South 18.4 mph 25.3 mph N/A   Clear
10:55 AM 69.8 °F - 36.9 °F 30% 30.25 in 10.0 mi South 16.1 mph 20.7 mph N/A   Clear
11:15 AM 70.7 °F - 36.7 °F 29% 30.24 in 10.0 mi South 13.8 mph 21.9 mph N/A   Clear
11:35 AM 72.7 °F - 35.6 °F 26% 30.23 in 10.0 mi South 16.1 mph 21.9 mph N/A   Clear
11:55 AM 73.4 °F - 35.1 °F 25% 30.22 in 10.0 mi South 12.7 mph 20.7 mph N/A   Clear
12:15 PM 75.0 °F - 33.6 °F 22% 30.20 in 10.0 mi South 13.8 mph 20.7 mph N/A   Clear
12:35 PM 75.2 °F - 32.9 °F 21% 30.18 in 10.0 mi South 12.7 mph 21.9 mph N/A   Clear
12:55 PM 76.5 °F - 32.0 °F 20% 30.17 in 10.0 mi South 15.0 mph 20.7 mph N/A   Clear
1:15 PM 77.2 °F - 32.0 °F 19% 30.15 in 10.0 mi South 15.0 mph 21.9 mph N/A   Clear
1:35 PM 77.9 °F - 31.8 °F 19% 30.13 in 10.0 mi SSE 16.1 mph 21.9 mph N/A   Clear
1:55 PM 78.4 °F - 30.9 °F 18% 30.12 in 10.0 mi South 11.5 mph 23.0 mph N/A   Clear
2:15 PM 78.8 °F - 36.5 °F 22% 30.11 in 10.0 mi SSE 12.7 mph 25.3 mph N/A   Clear
2:35 PM 78.1 °F - 36.9 °F 23% 30.10 in 10.0 mi SSE 16.1 mph 21.9 mph N/A   Clear
2:55 PM 78.1 °F - 38.1 °F 24% 30.09 in 10.0 mi SE 20.7 mph 26.5 mph N/A   Clear
3:15 PM 78.4 °F - 39.4 °F 25% 30.08 in 10.0 mi SSE 17.3 mph 25.3 mph N/A   Clear
3:55 PM 76.8 °F - 41.5 °F 28% 30.07 in 10.0 mi SSE 17.3 mph 28.8 mph N/A   Clear
4:15 PM 76.8 °F - 41.9 °F 29% 30.06 in 10.0 mi SE 19.6 mph 27.6 mph N/A   Clear
4:35 PM 75.4 °F - 42.6 °F 31% 30.06 in 10.0 mi SE 23.0 mph 31.1 mph N/A   Clear
4:55 PM 74.5 °F - 41.9 °F 31% 30.05 in 10.0 mi SE 21.9 mph 28.8 mph N/A   Clear
5:15 PM 72.0 °F - 42.1 °F 34% 30.05 in 10.0 mi SSE 24.2 mph 28.8 mph N/A   Clear
5:35 PM 71.2 °F - 42.8 °F 36% 30.05 in 10.0 mi SE 23.0 mph 27.6 mph N/A   Clear
5:55 PM 70.2 °F - 42.1 °F 36% 30.05 in 10.0 mi SSE 20.7 mph 27.6 mph N/A   Clear
6:35 PM 67.1 °F - 44.1 °F 43% 30.05 in 10.0 mi SSE 21.9 mph 28.8 mph N/A   Clear
6:55 PM 66.0 °F - 45.7 °F 48% 30.05 in 10.0 mi SSE 18.4 mph 26.5 mph N/A   Clear
7:15 PM 64.9 °F - 47.1 °F 52% 30.05 in 10.0 mi SSE 19.6 mph 25.3 mph N/A   Clear
7:35 PM 64.4 °F - 47.8 °F 55% 30.05 in 10.0 mi SSE 19.6 mph - N/A   Clear
7:55 PM 64.4 °F - 48.4 °F 56% 30.05 in 10.0 mi SSE 19.6 mph 25.3 mph N/A   Clear
8:15 PM 64.2 °F - 49.1 °F 58% 30.05 in 10.0 mi SSE 20.7 mph - N/A   Clear
8:35 PM 63.9 °F - 50.0 °F 61% 30.05 in 10.0 mi SSE 21.9 mph 26.5 mph N/A   Clear
8:55 PM 63.7 °F - 50.4 °F 62% 30.05 in 10.0 mi SSE 19.6 mph - N/A   Clear
9:15 PM 63.5 °F - 50.7 °F 63% 30.06 in 10.0 mi SSE 19.6 mph 25.3 mph N/A   Clear
9:35 PM 63.3 °F - 50.9 °F 64% 30.05 in 10.0 mi SSE 19.6 mph - N/A   Clear
9:55 PM 63.0 °F - 50.9 °F 65% 30.05 in 10.0 mi South 19.6 mph 24.2 mph N/A   Clear
10:15 PM 62.6 °F - 50.9 °F 66% 30.05 in 10.0 mi South 16.1 mph - N/A   Clear
10:35 PM 62.2 °F - 51.1 °F 67% 30.04 in 10.0 mi South 18.4 mph - N/A   Clear
10:55 PM 61.7 °F - 51.1 °F 68% 30.03 in 10.0 mi South 17.3 mph - N/A   Clear
11:15 PM 61.3 °F - 51.1 °F 69% 30.03 in 10.0 mi South 15.0 mph - N/A   Clear
11:35 PM 61.2 °F - 51.1 °F 69% 30.02 in 10.0 mi South 13.8 mph 20.7 mph N/A   Clear